Time,TemperatureF,DewpointF,PressureIn,WindDirection,WindDirectionDegrees,WindSpeedMPH,WindSpeedGustMPH,Humidity,HourlyPrecipIn,Conditions,Clouds,dailyrainin,SoftwareType,DateUTC
2013-03-03 00:01:00,42.0,-99.9,30.28,NW,313,6.0,8.0,-999,-99.99,,,-99.99,,2013-03-03 08:01:00,
2013-03-03 00:11:00,42.0,-99.9,30.28,NW,305,5.0,9.0,-999,-99.99,,,-99.99,,2013-03-03 08:11:00,
2013-03-03 00:21:00,42.0,-99.9,30.28,NNW,335,4.0,6.0,-999,-99.99,,,-99.99,,2013-03-03 08:21:00,
2013-03-03 00:32:00,41.0,-99.9,30.29,North,6,3.0,5.0,-999,-99.99,,,-99.99,,2013-03-03 08:32:00,
2013-03-03 00:42:00,41.0,-99.9,30.28,North,356,3.0,4.0,-999,-99.99,,,-99.99,,2013-03-03 08:42:00,
2013-03-03 00:54:00,41.0,-99.9,30.29,NNE,19,3.0,4.0,-999,-99.99,,,-99.99,,2013-03-03 08:54:00,
2013-03-03 01:02:00,40.0,-99.9,30.29,NNE,17,2.0,4.0,-999,-99.99,,,-99.99,,2013-03-03 09:02:00,
2013-03-03 01:12:00,40.0,-99.9,30.29,NNE,15,3.0,4.0,-999,-99.99,,,-99.99,,2013-03-03 09:12:00,
2013-03-03 01:22:00,40.0,-99.9,30.30,North,-999,4.0,5.0,-999,-99.99,,,-99.99,,2013-03-03 09:22:00,
2013-03-03 01:32:00,40.0,-99.9,30.30,North,349,2.0,4.0,-999,-99.99,,,-99.99,,2013-03-03 09:32:00,
2013-03-03 01:42:00,40.0,-99.9,30.30,SW,228,4.0,5.0,-999,-99.99,,,-99.99,,2013-03-03 09:42:00,
2013-03-03 01:52:00,40.0,-99.9,30.30,SW,226,4.0,4.0,-999,-99.99,,,-99.99,,2013-03-03 09:52:00,
2013-03-03 02:01:00,40.0,-99.9,30.30,NW,312,3.0,5.0,-999,-99.99,,,-99.99,,2013-03-03 10:01:00,
2013-03-03 02:12:00,40.0,-99.9,30.30,NNW,328,2.0,5.0,-999,-99.99,,,-99.99,,2013-03-03 10:12:00,
2013-03-03 02:22:00,39.0,-99.9,30.31,NNW,344,2.0,3.0,-999,-99.99,,,-99.99,,2013-03-03 10:22:00,
2013-03-03 02:32:00,39.0,-99.9,30.31,North,10,2.0,3.0,-999,-99.99,,,-99.99,,2013-03-03 10:32:00,
2013-03-03 02:42:00,39.0,-99.9,30.30,North,6,2.0,3.0,-999,-99.99,,,-99.99,,2013-03-03 10:42:00,
2013-03-03 02:52:00,39.0,-99.9,30.30,NNE,16,2.0,4.0,-999,-99.99,,,-99.99,,2013-03-03 10:52:00,
2013-03-03 03:02:00,39.0,-99.9,30.31,North,10,0.0,3.0,-999,-99.99,,,-99.99,,2013-03-03 11:02:00,
2013-03-03 03:11:00,38.0,-99.9,30.30,ESE,104,2.0,3.0,-999,-99.99,,,-99.99,,2013-03-03 11:11:00,
2013-03-03 03:22:00,38.0,-99.9,30.31,ESE,118,-999.0,2.0,-999,-99.99,,,-99.99,,2013-03-03 11:22:00,
2013-03-03 03:32:00,38.0,-99.9,30.30,East,101,0.0,2.0,-999,-99.99,,,-99.99,,2013-03-03 11:32:00,
2013-03-03 03:42:00,39.0,-99.9,30.30,South,191,1.0,3.0,-999,-99.99,,,-99.99,,2013-03-03 11:42:00,
2013-03-03 03:53:00,39.0,-99.9,30.30,East,96,1.0,2.0,-999,-99.99,,,-99.99,,2013-03-03 11:53:00,
2013-03-03 04:02:00,38.0,-99.9,30.30,East,97,3.0,5.0,-999,-99.99,,,-99.99,,2013-03-03 12:02:00,
2013-03-03 04:11:00,38.0,-99.9,30.31,North,349,0.0,5.0,-999,-99.99,,,-99.99,,2013-03-03 12:11:00,
2013-03-03 04:22:00,39.0,-99.9,30.30,ENE,64,1.0,3.0,-999,-99.99,,,-99.99,,2013-03-03 12:22:00,
2013-03-03 04:32:00,39.0,-99.9,30.30,SSE,155,0.0,2.0,-999,-99.99,,,-99.99,,2013-03-03 12:32:00,
2013-03-03 04:43:00,39.0,-99.9,30.30,ENE,68,-999.0,2.0,-999,-99.99,,,-99.99,,2013-03-03 12:43:00,
2013-03-03 04:53:00,38.0,-99.9,30.30,NW,317,0.0,4.0,-999,-99.99,,,-99.99,,2013-03-03 12:53:00,
2013-03-03 05:02:00,39.0,-99.9,30.30,North,-999,-999.0,-999.0,-999,-99.99,,,-99.99,,2013-03-03 13:02:00,
2013-03-03 05:11:00,39.0,-99.9,30.30,SW,214,0.0,1.0,-999,-99.99,,,-99.99,,2013-03-03 13:11:00,
2013-03-03 05:22:00,39.0,-99.9,30.30,West,276,-999.0,1.0,-999,-99.99,,,-99.99,,2013-03-03 13:22:00,
2013-03-03 05:32:00,39.0,-99.9,30.30,North,-999,-999.0,-999.0,-999,-99.99,,,-99.99,,2013-03-03 13:32:00,
2013-03-03 05:42:00,39.0,-99.9,30.30,WNW,289,3.0,5.0,-999,-99.99,,,-99.99,,2013-03-03 13:42:00,
2013-03-03 05:52:00,39.0,-99.9,30.30,NW,324,0.0,2.0,-999,-99.99,,,-99.99,,2013-03-03 13:52:00,
2013-03-03 06:02:00,38.0,-99.9,30.30,NNW,338,1.0,4.0,-999,-99.99,,,-99.99,,2013-03-03 14:02:00,
2013-03-03 06:11:00,38.0,-99.9,30.31,North,349,0.0,1.0,-999,-99.99,,,-99.99,,2013-03-03 14:11:00,
2013-03-03 06:22:00,38.0,-99.9,30.31,WSW,237,3.0,4.0,-999,-99.99,,,-99.99,,2013-03-03 14:22:00,
2013-03-03 06:32:00,38.0,-99.9,30.31,WSW,242,3.0,4.0,-999,-99.99,,,-99.99,,2013-03-03 14:32:00,
2013-03-03 06:42:00,38.0,-99.9,30.31,NNW,344,0.0,3.0,-999,-99.99,,,-99.99,,2013-03-03 14:42:00,
2013-03-03 06:52:00,37.0,-99.9,30.31,East,88,3.0,4.0,-999,-99.99,,,-99.99,,2013-03-03 14:52:00,
2013-03-03 07:02:00,37.0,-99.9,30.31,East,85,5.0,6.0,-999,-99.99,,,-99.99,,2013-03-03 15:02:00,
2013-03-03 07:11:00,37.0,-99.9,30.31,East,81,4.0,6.0,-999,-99.99,,,-99.99,,2013-03-03 15:11:00,
2013-03-03 07:22:00,37.0,-99.9,30.31,ESE,113,2.0,3.0,-999,-99.99,,,-99.99,,2013-03-03 15:22:00,
2013-03-03 07:32:00,38.0,-99.9,30.31,South,179,2.0,3.0,-999,-99.99,,,-99.99,,2013-03-03 15:32:00,
2013-03-03 07:42:00,37.0,-99.9,30.32,ENE,65,4.0,5.0,-999,-99.99,,,-99.99,,2013-03-03 15:42:00,
2013-03-03 07:52:00,36.0,-99.9,30.32,East,87,5.0,6.0,-999,-99.99,,,-99.99,,2013-03-03 15:52:00,
2013-03-03 08:02:00,37.0,-99.9,30.32,East,83,4.0,8.0,-999,-99.99,,,-99.99,,2013-03-03 16:02:00,
2013-03-03 08:12:00,37.0,-99.9,30.32,ENE,75,4.0,7.0,-999,-99.99,,,-99.99,,2013-03-03 16:12:00,
2013-03-03 08:22:00,37.0,-99.9,30.32,East,85,4.0,6.0,-999,-99.99,,,-99.99,,2013-03-03 16:22:00,
2013-03-03 08:32:00,38.0,-99.9,30.32,ESE,105,4.0,4.0,-999,-99.99,,,-99.99,,2013-03-03 16:32:00,
2013-03-03 08:42:00,38.0,-99.9,30.32,East,87,3.0,4.0,-999,-99.99,,,-99.99,,2013-03-03 16:42:00,
2013-03-03 08:52:00,38.0,-99.9,30.32,East,87,2.0,4.0,-999,-99.99,,,-99.99,,2013-03-03 16:52:00,
2013-03-03 09:01:00,39.0,-99.9,30.32,East,82,2.0,3.0,-999,-99.99,,,-99.99,,2013-03-03 17:01:00,
2013-03-03 09:12:00,42.0,-99.9,30.32,East,82,0.0,2.0,-999,-99.99,,,-99.99,,2013-03-03 17:12:00,
2013-03-03 09:22:00,43.0,-99.9,30.32,ESE,117,-999.0,2.0,-999,-99.99,,,-99.99,,2013-03-03 17:22:00,
2013-03-03 09:32:00,43.0,-99.9,30.32,SE,129,1.0,2.0,-999,-99.99,,,-99.99,,2013-03-03 17:32:00,
2013-03-03 09:42:00,42.0,-99.9,30.32,SE,144,4.0,5.0,-999,-99.99,,,-99.99,,2013-03-03 17:42:00,
2013-03-03 09:52:00,42.0,-99.9,30.32,SSE,157,3.0,4.0,-999,-99.99,,,-99.99,,2013-03-03 17:52:00,
2013-03-03 10:02:00,42.0,-99.9,30.32,South,169,2.0,4.0,-999,-99.99,,,-99.99,,2013-03-03 18:02:00,
2013-03-03 10:11:00,42.0,-99.9,30.31,SSE,156,4.0,4.0,-999,-99.99,,,-99.99,,2013-03-03 18:11:00,
2013-03-03 10:22:00,44.0,-99.9,30.31,SE,132,2.0,3.0,-999,-99.99,,,-99.99,,2013-03-03 18:22:00,
2013-03-03 10:32:00,46.0,-99.9,30.31,SE,132,0.0,3.0,-999,-99.99,,,-99.99,,2013-03-03 18:32:00,
2013-03-03 10:42:00,46.0,-99.9,30.31,WNW,295,1.0,2.0,-999,-99.99,,,-99.99,,2013-03-03 18:42:00,
2013-03-03 10:53:00,45.0,-99.9,30.31,West,272,2.0,3.0,-999,-99.99,,,-99.99,,2013-03-03 18:53:00,
2013-03-03 11:02:00,44.0,-99.9,30.31,WNW,292,4.0,4.0,-999,-99.99,,,-99.99,,2013-03-03 19:02:00,
2013-03-03 11:11:00,45.0,-99.9,30.31,WNW,301,4.0,5.0,-999,-99.99,,,-99.99,,2013-03-03 19:11:00,
2013-03-03 11:22:00,46.0,-99.9,30.31,WNW,298,5.0,8.0,-999,-99.99,,,-99.99,,2013-03-03 19:22:00,
2013-03-03 11:32:00,45.0,-99.9,30.31,WNW,287,7.0,8.0,-999,-99.99,,,-99.99,,2013-03-03 19:32:00,
2013-03-03 11:42:00,45.0,-99.9,30.31,WNW,286,8.0,10.0,-999,-99.99,,,-99.99,,2013-03-03 19:42:00,
2013-03-03 11:52:00,46.0,-99.9,30.30,WSW,244,6.0,9.0,-999,-99.99,,,-99.99,,2013-03-03 19:52:00,
2013-03-03 12:02:00,46.0,-99.9,30.30,WSW,250,9.0,11.0,-999,-99.99,,,-99.99,,2013-03-03 20:02:00,
2013-03-03 12:12:00,46.0,-99.9,30.30,West,277,9.0,12.0,-999,-99.99,,,-99.99,,2013-03-03 20:12:00,
2013-03-03 12:22:00,47.0,-99.9,30.30,WNW,292,6.0,8.0,-999,-99.99,,,-99.99,,2013-03-03 20:22:00,
2013-03-03 12:32:00,47.0,-99.9,30.30,WNW,288,7.0,11.0,-999,-99.99,,,-99.99,,2013-03-03 20:32:00,
2013-03-03 12:43:00,47.0,-99.9,30.30,WNW,288,8.0,10.0,-999,-99.99,,,-99.99,,2013-03-03 20:43:00,
2013-03-03 12:53:00,47.0,-99.9,30.30,WNW,299,6.0,11.0,-999,-99.99,,,-99.99,,2013-03-03 20:53:00,
2013-03-03 13:02:00,47.0,-99.9,30.29,WNW,292,7.0,12.0,-999,-99.99,,,-99.99,,2013-03-03 21:02:00,
2013-03-03 13:12:00,47.0,-99.9,30.29,NW,320,5.0,7.0,-999,-99.99,,,-99.99,,2013-03-03 21:12:00,
2013-03-03 13:22:00,48.0,-99.9,30.29,WNW,294,2.0,4.0,-999,-99.99,,,-99.99,,2013-03-03 21:22:00,
2013-03-03 13:32:00,48.0,-99.9,30.29,WNW,298,2.0,4.0,-999,-99.99,,,-99.99,,2013-03-03 21:32:00,
2013-03-03 13:42:00,48.0,-99.9,30.29,WNW,291,6.0,8.0,-999,-99.99,,,-99.99,,2013-03-03 21:42:00,
2013-03-03 13:52:00,49.0,-99.9,30.28,NW,306,3.0,7.0,-999,-99.99,,,-99.99,,2013-03-03 21:52:00,
2013-03-03 14:02:00,49.0,-99.9,30.28,WNW,295,5.0,6.0,-999,-99.99,,,-99.99,,2013-03-03 22:02:00,
2013-03-03 14:11:00,47.0,-99.9,30.28,NW,319,11.0,17.0,-999,-99.99,,,-99.99,,2013-03-03 22:11:00,
2013-03-03 14:22:00,46.0,-99.9,30.28,WNW,299,10.0,14.0,-999,-99.99,,,-99.99,,2013-03-03 22:22:00,
2013-03-03 14:32:00,47.0,-99.9,30.28,WNW,294,9.0,12.0,-999,-99.99,,,-99.99,,2013-03-03 22:32:00,
2013-03-03 14:42:00,47.0,-99.9,30.29,West,272,9.0,11.0,-999,-99.99,,,-99.99,,2013-03-03 22:42:00,
2013-03-03 14:53:00,47.0,-99.9,30.28,WNW,283,6.0,8.0,-999,-99.99,,,-99.99,,2013-03-03 22:53:00,
2013-03-03 15:02:00,48.0,-99.9,30.28,West,279,5.0,9.0,-999,-99.99,,,-99.99,,2013-03-03 23:02:00,
2013-03-03 15:11:00,49.0,-99.9,30.28,WNW,293,8.0,10.0,-999,-99.99,,,-99.99,,2013-03-03 23:11:00,
2013-03-03 15:22:00,49.0,-99.9,30.29,NW,313,10.0,14.0,-999,-99.99,,,-99.99,,2013-03-03 23:22:00,
2013-03-03 15:32:00,49.0,-99.9,30.29,NW,310,7.0,10.0,-999,-99.99,,,-99.99,,2013-03-03 23:32:00,
2013-03-03 15:42:00,49.0,-99.9,30.29,NW,318,6.0,8.0,-999,-99.99,,,-99.99,,2013-03-03 23:42:00,
2013-03-03 15:52:00,49.0,-99.9,30.28,West,278,3.0,7.0,-999,-99.99,,,-99.99,,2013-03-03 23:52:00,
2013-03-03 16:02:00,48.0,-99.9,30.28,WSW,237,6.0,7.0,-999,-99.99,,,-99.99,,2013-03-04 00:02:00,
2013-03-03 16:11:00,48.0,-99.9,30.28,West,261,7.0,10.0,-999,-99.99,,,-99.99,,2013-03-04 00:11:00,
2013-03-03 16:22:00,48.0,-99.9,30.28,West,266,8.0,10.0,-999,-99.99,,,-99.99,,2013-03-04 00:22:00,
2013-03-03 16:32:00,48.0,-99.9,30.28,WNW,282,7.0,10.0,-999,-99.99,,,-99.99,,2013-03-04 00:32:00,
2013-03-03 16:42:00,48.0,-99.9,30.28,WNW,296,9.0,11.0,-999,-99.99,,,-99.99,,2013-03-04 00:42:00,
2013-03-03 16:52:00,48.0,-99.9,30.28,WNW,297,9.0,10.0,-999,-99.99,,,-99.99,,2013-03-04 00:52:00,
2013-03-03 17:02:00,47.0,-99.9,30.28,NW,319,5.0,9.0,-999,-99.99,,,-99.99,,2013-03-04 01:02:00,
2013-03-03 17:12:00,47.0,-99.9,30.28,NNW,327,6.0,8.0,-999,-99.99,,,-99.99,,2013-03-04 01:12:00,
2013-03-03 17:22:00,47.0,-99.9,30.28,NW,324,4.0,5.0,-999,-99.99,,,-99.99,,2013-03-04 01:22:00,
2013-03-03 17:32:00,47.0,-99.9,30.28,NW,306,6.0,8.0,-999,-99.99,,,-99.99,,2013-03-04 01:32:00,
2013-03-03 17:42:00,47.0,-99.9,30.28,WNW,298,11.0,12.0,-999,-99.99,,,-99.99,,2013-03-04 01:42:00,
2013-03-03 17:52:00,46.0,-99.9,30.28,WNW,296,11.0,17.0,-999,-99.99,,,-99.99,,2013-03-04 01:52:00,
2013-03-03 18:01:00,46.0,-99.9,30.28,WNW,289,8.0,13.0,-999,-99.99,,,-99.99,,2013-03-04 02:01:00,
2013-03-03 18:11:00,46.0,-99.9,30.28,SW,223,3.0,4.0,-999,-99.99,,,-99.99,,2013-03-04 02:11:00,
2013-03-03 18:22:00,45.0,-99.9,30.28,South,169,3.0,4.0,-999,-99.99,,,-99.99,,2013-03-04 02:22:00,
2013-03-03 18:32:00,45.0,-99.9,30.29,ESE,109,1.0,2.0,-999,-99.99,,,-99.99,,2013-03-04 02:32:00,
2013-03-03 18:42:00,45.0,-99.9,30.29,ESE,103,3.0,4.0,-999,-99.99,,,-99.99,,2013-03-04 02:42:00,
2013-03-03 18:53:00,45.0,-99.9,30.29,South,177,5.0,6.0,-999,-99.99,,,-99.99,,2013-03-04 02:53:00,
2013-03-03 19:02:00,45.0,-99.9,30.28,South,180,3.0,5.0,-999,-99.99,,,-99.99,,2013-03-04 03:02:00,
2013-03-03 19:11:00,44.0,-99.9,30.29,WSW,242,3.0,5.0,-999,-99.99,,,-99.99,,2013-03-04 03:11:00,
2013-03-03 19:22:00,44.0,-99.9,30.29,West,273,2.0,4.0,-999,-99.99,,,-99.99,,2013-03-04 03:22:00,
2013-03-03 19:32:00,44.0,-99.9,30.29,WNW,294,2.0,3.0,-999,-99.99,,,-99.99,,2013-03-04 03:32:00,
2013-03-03 19:42:00,44.0,-99.9,30.29,SSW,212,2.0,4.0,-999,-99.99,,,-99.99,,2013-03-04 03:42:00,
2013-03-03 19:53:00,43.0,-99.9,30.29,SW,231,2.0,3.0,-999,-99.99,,,-99.99,,2013-03-04 03:53:00,
2013-03-03 20:02:00,44.0,-99.9,30.29,NW,305,2.0,5.0,-999,-99.99,,,-99.99,,2013-03-04 04:02:00,
2013-03-03 20:11:00,43.0,-99.9,30.29,West,273,3.0,4.0,-999,-99.99,,,-99.99,,2013-03-04 04:11:00,
2013-03-03 20:22:00,43.0,-99.9,30.30,WNW,282,2.0,5.0,-999,-99.99,,,-99.99,,2013-03-04 04:22:00,
2013-03-03 20:32:00,43.0,-99.9,30.30,NW,314,2.0,4.0,-999,-99.99,,,-99.99,,2013-03-04 04:32:00,
2013-03-03 20:42:00,42.0,-99.9,30.30,WSW,241,1.0,2.0,-999,-99.99,,,-99.99,,2013-03-04 04:42:00,
2013-03-03 20:52:00,41.0,-99.9,30.30,East,92,1.0,2.0,-999,-99.99,,,-99.99,,2013-03-04 04:52:00,
2013-03-03 21:01:00,41.0,-99.9,30.30,ESE,105,-999.0,1.0,-999,-99.99,,,-99.99,,2013-03-04 05:01:00,
2013-03-03 21:11:00,41.0,-99.9,30.30,North,-999,-999.0,-999.0,-999,-99.99,,,-99.99,,2013-03-04 05:11:00,
2013-03-03 21:22:00,40.0,-99.9,30.30,South,188,0.0,2.0,-999,-99.99,,,-99.99,,2013-03-04 05:22:00,
2013-03-03 21:32:00,40.0,-99.9,30.29,North,-999,-999.0,-999.0,-999,-99.99,,,-99.99,,2013-03-04 05:32:00,
2013-03-03 21:43:00,40.0,-99.9,30.29,NW,305,-999.0,2.0,-999,-99.99,,,-99.99,,2013-03-04 05:43:00,
2013-03-03 21:52:00,40.0,-99.9,30.30,ENE,59,2.0,5.0,-999,-99.99,,,-99.99,,2013-03-04 05:52:00,
2013-03-03 22:02:00,39.0,-99.9,30.30,East,79,4.0,4.0,-999,-99.99,,,-99.99,,2013-03-04 06:02:00,
2013-03-03 22:11:00,39.0,-99.9,30.30,East,92,4.0,5.0,-999,-99.99,,,-99.99,,2013-03-04 06:11:00,
2013-03-03 22:22:00,38.0,-99.9,30.30,East,85,3.0,4.0,-999,-99.99,,,-99.99,,2013-03-04 06:22:00,
2013-03-03 22:32:00,38.0,-99.9,30.30,ENE,74,1.0,3.0,-999,-99.99,,,-99.99,,2013-03-04 06:32:00,
2013-03-03 22:42:00,38.0,-99.9,30.30,SSE,149,-999.0,1.0,-999,-99.99,,,-99.99,,2013-03-04 06:42:00,
2013-03-03 22:52:00,38.0,-99.9,30.29,WNW,301,-999.0,2.0,-999,-99.99,,,-99.99,,2013-03-04 06:52:00,
2013-03-03 23:02:00,38.0,-99.9,30.30,North,351,1.0,2.0,-999,-99.99,,,-99.99,,2013-03-04 07:02:00,
2013-03-03 23:11:00,38.0,-99.9,30.30,NNE,13,1.0,2.0,-999,-99.99,,,-99.99,,2013-03-04 07:11:00,
2013-03-03 23:22:00,38.0,-99.9,30.29,NNE,14,2.0,2.0,-999,-99.99,,,-99.99,,2013-03-04 07:22:00,
2013-03-03 23:32:00,38.0,-99.9,30.29,NNW,345,3.0,3.0,-999,-99.99,,,-99.99,,2013-03-04 07:32:00,
2013-03-03 23:42:00,37.0,-99.9,30.29,North,356,3.0,4.0,-999,-99.99,,,-99.99,,2013-03-04 07:42:00,
2013-03-03 23:52:00,37.0,-99.9,30.29,North,350,2.0,5.0,-999,-99.99,,,-99.99,,2013-03-04 07:52:00,